SCP
4 4 4 5 5 4 3 3 4 4 3 2 2 1 0 0 1 0 0 0 0 0 0 0 0 0 0 0 0 0 0 0 0 0 0 0 0 0 0 0 0 0 0
3 3 4 4 4 4 3 3 3 3 3 2 1 1 0 0 0 0 0 0 0 0 0 0 0 0 0 0 0 0 0 0 0 0 0 0 0 0 0 0 0 0 0
3 3 3 3 4 4 3 3 4 3 2 2 1 0 0 0 0 0 0 0 0 0 0 0 0 0 0 0 0 0 0 0 0 0 0 0 0 0 0 0 0 0 0
3 3 3 4 5 4 3 4 5 4 2 1 1 0 0 0 0 0 0 0 0 0 0 0 0 0 0 0 0 0 0 0 0 0 0 0 0 0 0 0 0 0 0
3 3 3 4 5 4 3 3 4 4 2 1 1 0 0 0 0 0 0 0 0 0 0 0 0 0 0 0 0 0 0 0 0 0 0 0 0 0 0 0 0 0 0
3 3 3 3 4 4 2 2 3 2 2 1 1 0 0 0 0 0 0 0 0 0 0 0 0 0 0 0 0 0 0 0 0 0 0 0 0 0 0 0 0 0 0
3 4 3 2 3 3 2 1 2 2 1 1 1 0 0 0 0 0 0 0 0 0 0 0 0 0 0 0 0 0 0 0 0 0 0 0 0 0 0 0 0 0 0
3 3 3 2 2 2 2 1 1 1 1 1 1 0 0 0 0 0 0 0 0 0 0 0 0 0 0 0 0 0 0 0 0 0 0 0 0 0 0 0 0 0 0
2 2 2 2 2 2 2 1 1 1 1 1 1 1 0 0 0 0 0 0 0 0 0 0 0 0 0 0 0 0 0 0 0 0 0 0 0 0 0 0 0 0 0
1 1 2 2 2 2 2 2 2 2 1 1 1 1 0 0 0 0 0 0 0 0 0 0 0 0 0 0 0 0 0 0 0 0 0 0 0 0 0 0 0 0 0
1 2 2 2 2 3 2 2 2 2 1 1 1 1 1 0 0 0 0 0 0 0 0 0 0 0 0 0 0 0 0 0 0 0 0 0 0 0 0 0 0 0 0
1 1 2 2 2 2 2 2 2 2 2 1 1 1 1 1 1 1 0 0 0 0 0 0 0 0 0 0 0 0 0 0 0 0 0 0 0 0 0 0 0 0 0
1 1 1 1 2 2 2 2 2 2 2 1 1 1 1 1 1 1 1 0 0 0 0 0 0 0 0 0 1 1 1 0 0 0 0 0 0 0 0 0 0 0 0
2 2 2 1 1 2 2 2 2 2 2 2 1 1 1 1 1 1 1 1 1 1 1 1 1 0 0 1 1 1 1 1 0 0 0 0 0 0 0 0 0 0 0
2 2 2 1 2 2 2 2 2 2 2 2 2 2 1 1 1 1 1 1 1 1 1 1 1 1 1 1 1 1 1 1 1 0 0 0 0 0 0 0 0 0 0
2 2 2 1 2 2 3 2 2 2 2 2 2 2 2 1 1 1 2 2 1 1 1 1 1 1 1 1 1 1 1 1 1 1 0 1 1 1 0 0 0 0 0
2 2 1 1 1 2 2 2 2 2 2 2 2 2 1 1 1 1 2 1 1 1 1 1 1 1 1 1 0 0 0 1 0 0 0 0 0 0 0 0 0 0 0
1 1 1 1 1 1 1 1 1 1 1 1 1 1 1 1 1 1 1 1 1 1 1 1 1 1 1 1 0 0 0 0 0 0 0 0 0 0 0 0 0 0 0
1 1 1 1 1 0 0 0 0 0 0 0 0 0 0 0 1 1 1 1 1 1 1 1 1 1 1 1 0 0 0 0 0 0 0 0 0 0 0 0 0 0 0
1 1 0 0 0 0 0 0 0 0 0 0 0 0 0 0 0 0 0 0 0 1 1 1 1 1 1 0 0 0 0 0 0 0 0 0 0 0 0 0 0 0 0
0 0 0 0 0 0 0 0 0 0 0 0 0 0 0 0 0 0 0 0 0 0 0 0 0 0 0 0 0 0 0 0 0 0 0 0 0 0 0 0 0 0 0
0 0 0 0 0 0 0 0 0 0 0 0 0 0 0 0 0 0 0 0 0 0 0 0 0 0 0 0 0 0 0 0 0 0 0 0 0 0 0 0 0 0 0
0 0 0 0 0 0 0 0 0 0 0 0 0 0 0 0 0 0 0 0 0 0 0 0 0 0 0 0 0 0 0 0 0 0 0 0 0 0 0 0 0 0 0
0 0 0 0 0 0 0 0 0 0 0 0 0 0 0 0 0 0 0 0 0 0 0 0 0 0 0 0 0 0 0 0 0 0 0 0 0 0 0 0 0 0 0
0 0 0 0 0 0 0 0 0 0 0 0 0 0 0 0 0 0 0 0 0 0 0 0 0 0 0 0 0 0 0 0 -0 0 0 0 0 0 0 0 0 0 0
0 0 0 0 0 0 0 0 0 0 0 0 0 0 0 0 0 0 0 0 0 0 0 0 0 0 0 0 0 0 -0 -0 -0 0 0 0 0 0 0 0 0 0 0
Wind_Speed
7 8 9 9 8 8 8 9 10 8 8 6 6 6 4 3 3 3 4 4 4 4 4 3 3 3 3 3 3 2 3 2 1 3 3 3 2 0 1 1 1 2 3
7 8 9 8 8 9 9 9 8 8 8 6 5 4 5 3 3 3 3 4 4 4 4 4 3 3 3 4 3 3 2 2 2 3 3 2 4 3 1 0 1 1 1
10 10 10 9 9 9 10 10 8 8 7 7 5 5 4 3 2 2 2 2 4 4 4 5 4 3 3 3 3 3 3 2 2 1 4 3 2 2 3 2 0 1 1
9 10 10 10 11 10 9 9 8 7 7 7 8 9 6 5 4 4 3 3 4 4 5 5 5 4 3 3 2 3 2 3 2 2 1 2 3 3 0 3 2 1 1
10 11 11 11 10 9 9 8 8 7 7 7 8 8 5 4 3 3 4 3 2 4 4 5 5 4 3 3 3 3 3 3 2 1 1 2 2 2 3 1 3 3 2
10 9 9 8 8 8 8 8 8 7 7 7 7 7 7 6 6 5 5 3 2 2 3 4 4 4 3 3 3 3 3 3 3 2 2 2 2 1 2 2 1 2 3
10 10 10 9 9 9 9 9 9 8 7 7 7 7 7 8 8 7 6 5 3 3 4 4 4 3 3 4 3 3 3 2 2 2 1 1 1 2 2 2 1 1 3
10 11 11 10 10 11 10 10 10 8 8 7 6 6 6 5 5 6 5 5 4 5 5 5 5 5 5 4 3 2 2 2 2 2 2 1 1 1 2 3 3 1 2
11 11 10 10 10 11 10 10 10 8 8 7 6 5 6 5 5 5 5 4 4 5 6 7 6 5 5 5 4 2 2 2 2 2 1 1 1 0 1 2 3 4 1
10 10 10 10 10 10 9 9 9 9 8 8 7 6 6 6 5 5 5 5 5 5 6 7 7 6 5 5 4 3 3 3 3 2 2 2 1 1 0 1 1 2 4
11 11 10 10 9 9 9 9 9 8 8 8 7 6 6 6 5 5 6 5 5 5 7 7 7 7 6 6 5 5 4 4 4 3 3 4 3 2 2 1 1 1 3
9 9 10 10 9 10 9 10 9 9 9 8 7 7 6 6 6 6 6 5 5 6 7 7 7 7 7 7 7 7 6 5 5 5 5 5 4 4 3 3 3 3 3
7 8 8 9 10 10 10 10 9 9 8 7 7 6 6 6 6 6 5 5 6 6 6 7 7 8 7 7 7 7 7 7 7 6 6 7 6 6 5 5 5 4 4
6 7 8 8 8 8 8 9 9 8 8 7 7 7 7 6 6 5 5 5 6 6 6 6 7 7 7 7 7 7 7 7 7 7 7 7 7 8 7 6 6 5 5
5 6 7 7 7 7 6 7 6 6 7 7 7 7 6 5 4 4 5 5 5 6 6 6 5 5 6 6 7 7 7 7 7 6 7 7 9 10 8 6 6 6 6
6 6 6 7 7 7 7 6 6 5 5 5 4 3 2 2 2 2 2 2 3 3 3 4 4 4 4 4 7 6 4 4 5 5 5 6 6 7 9 10 9 8 7
7 7 6 6 6 6 7 7 7 7 7 6 4 4 3 3 2 2 2 1 0 0 1 2 2 2 1 2 3 4 2 2 2 2 3 3 3 3 3 6 8 8 11
9 8 7 8 7 7 8 8 8 8 9 8 6 6 5 5 5 5 4 2 2 2 2 2 2 2 2 2 1 1 1 1 1 2 2 1 2 4 4 4 4 5 6
10 9 9 10 10 9 9 11 10 10 10 8 7 6 6 6 6 5 4 3 4 4 3 3 4 4 4 5 4 4 3 3 3 4 4 3 3 7 8 5 5 7 7
10 10 10 11 11 9 9 13 11 10 9 7 7 6 6 6 5 4 3 3 4 4 4 5 5 5 4 6 7 6 3 3 3 4 4 5 5 7 8 4 5 7 8
11 11 12 11 9 8 10 13 10 8 6 6 7 6 6 5 5 4 4 5 5 6 6 6 5 5 6 8 9 8 4 3 2 2 3 3 8 10 11 8 5 9 9
11 11 12 11 8 8 11 12 9 6 6 6 6 5 4 4 5 5 4 4 5 5 5 5 4 4 4 6 7 8 6 3 1 1 3 4 10 12 12 9 10 13 10
10 9 11 11 8 7 9 10 6 5 6 6 6 5 4 4 3 4 4 3 3 3 3 3 2 2 2 3 5 5 5 4 2 2 6 9 11 11 8 10 12 10 5
9 9 10 10 7 6 7 7 5 5 6 6 5 4 4 4 4 3 2 2 2 2 2 2 2 1 1 2 2 3 3 4 4 3 6 9 9 7 7 8 7 4 4
7 8 9 9 7 6 6 5 5 6 7 6 5 4 4 4 3 3 2 2 1 2 3 2 2 2 1 2 3 2 2 3 3 3 3 3 4 4 5 5 5 5 5
8 8 8 8 6 6 5 4 5 6 6 5 4 3 3 3 3 3 4 7 6 7 8 7 5 2 2 4 5 6 7 7 5 3 2 3 4 4 5 5 6 5 5
Wind_Direction
173 164 166 167 157 156 158 155 152 151 144 138 133 131 133 140 131 134 134 122 109 99 94 91 76 84 93 97 96 87 69 49 73 71 30 3 6 360 203 171 170 202 203
163 166 164 166 165 163 160 152 154 154 152 146 141 138 138 145 141 133 128 129 118 115 106 104 100 91 90 75 67 77 82 28 60 112 91 30 355 345 339 276 174 180 169
166 167 167 172 171 170 167 164 161 157 154 145 126 117 101 93 92 118 136 144 131 121 114 111 105 94 102 97 83 82 102 80 20 84 135 140 200 298 332 321 261 184 165
168 168 169 173 176 175 168 161 161 159 157 148 141 146 147 153 175 171 166 159 147 138 130 119 110 104 107 109 107 92 100 106 64 13 38 142 156 142 318 328 323 303 217
172 171 171 173 174 170 165 164 161 165 164 156 152 151 148 156 153 148 151 156 157 157 147 132 123 120 116 116 106 95 88 100 111 88 54 54 55 85 130 237 315 332 307
169 164 162 163 166 164 161 164 163 168 171 162 155 154 155 155 149 156 166 174 174 169 168 150 141 141 137 135 128 117 107 104 101 94 91 107 107 115 127 159 256 290 294
164 163 166 168 168 168 168 169 169 174 176 166 162 162 162 162 164 168 176 176 181 188 193 169 159 158 163 159 145 133 128 128 120 125 120 118 144 161 144 132 162 304 305
170 173 175 174 171 171 173 173 176 179 176 171 172 170 166 163 170 174 175 185 192 198 189 181 176 175 173 168 154 147 164 158 155 150 141 138 169 153 155 152 141 60 332
177 176 175 174 174 174 178 177 176 179 179 177 174 176 175 171 175 178 178 188 199 200 190 184 181 182 180 177 166 172 193 185 193 198 194 193 236 178 167 161 154 148 177
179 177 177 177 176 176 175 173 176 182 182 180 182 186 186 183 181 178 187 194 201 198 181 184 184 185 186 183 176 182 198 192 211 209 213 230 233 246 207 159 167 160 165
182 182 180 178 175 172 173 176 179 180 184 187 188 186 187 188 185 189 197 195 195 190 185 184 185 189 193 192 189 201 202 206 225 228 219 233 231 237 244 212 179 184 170
180 180 177 173 174 176 178 181 182 184 188 189 188 192 191 190 194 203 205 197 194 192 190 186 188 197 200 198 198 209 212 211 222 230 227 236 234 235 237 231 232 226 205
170 171 171 175 179 180 181 183 185 187 185 181 184 192 194 193 201 209 209 204 198 195 192 189 195 203 204 203 207 209 215 217 221 223 224 230 226 235 233 230 233 236 235
163 166 170 175 176 176 178 181 185 184 182 180 182 188 195 198 203 206 207 207 201 197 197 197 200 203 205 207 210 211 217 223 227 226 226 228 224 229 229 232 231 231 238
141 158 163 165 165 166 171 174 175 176 179 176 187 199 199 200 200 203 211 211 207 208 202 200 206 208 208 215 212 215 221 224 232 236 235 236 234 232 231 235 231 228 236
134 134 137 143 149 157 161 157 148 143 137 143 166 166 150 161 186 202 213 221 227 225 203 200 206 211 222 224 214 207 219 223 231 244 252 256 254 255 251 251 248 234 235
120 121 128 134 133 132 134 129 126 119 115 115 108 99 104 107 100 96 85 89 69 89 159 179 178 181 213 231 216 212 210 236 254 262 274 282 299 304 293 282 277 266 258
100 97 98 97 96 98 98 97 93 94 95 93 88 86 92 92 82 74 71 63 67 70 71 79 100 98 71 81 99 108 101 53 0 344 333 337 1 6 353 330 320 302 291
94 89 89 91 90 91 96 96 89 88 88 88 84 85 90 89 84 77 66 61 69 66 61 62 74 79 56 58 68 77 63 41 20 16 25 28 19 10 11 358 330 314 304
91 90 85 83 81 78 87 90 87 86 86 89 89 87 89 91 90 86 75 65 76 76 71 65 68 74 65 59 71 81 70 52 29 19 20 26 19 2 1 348 318 303 299
93 92 89 83 80 82 88 87 84 83 88 89 87 85 86 91 90 83 73 73 75 71 67 68 66 71 74 65 68 73 75 70 43 12 345 327 339 338 332 323 284 277 288
95 95 94 87 78 79 87 85 80 78 77 76 75 74 74 80 84 77 68 73 83 82 79 77 65 59 63 67 68 65 65 67 69 321 305 308 323 325 322 316 301 301 302
100 98 99 93 80 75 85 90 84 76 72 67 62 59 55 54 67 80 79 76 84 93 89 90 86 62 49 48 54 50 37 23 8 298 306 313 316 319 317 312 315 318 313
104 103 100 96 87 78 80 89 87 77 71 61 49 44 45 39 42 53 75 91 98 100 100 104 108 92 42 9 2 2 357 349 341 324 316 315 316 316 308 312 319 318 311
107 103 103 102 99 91 83 81 82 79 70 58 45 40 42 42 37 34 39 64 83 135 128 124 123 112 44 322 343 357 336 321 309 322 331 338 336 334 327 320 315 315 321
108 105 105 107 105 97 85 73 75 79 72 54 39 35 36 34 38 41 35 43 56 71 83 91 96 86 54 5 5 358 349 346 353 21 345 326 320 317 317 317 315 314 313